User: anonymous   Login
Location: Luz Observatory
(34.5000°N, 117.2833°W)
Time: 08:32:08
(UTC-08:00)
Language:

Cosmos 1452 Rocket - Orbit

View from above orbital plane
View from above orbital plane
View from above satellite
View from above satellite

Ground track
Ground track

The orbit data is extracted from the following two-line orbital elements,

1 13992U 83031B   15060.45219218  .00000223  00000-0  85876-4 0  9998
2 13992 074.0522 105.2923 0006362 290.3167 168.1840 14.35892415668418
Epoch (UTC): 01 March 2015 10:51:09
Eccentricity: 0.0006362
inclination: 74.0522°
perigee height: 767 km
apogee height: 776 km
right ascension of ascending node: 105.2923°
argument of perigee: 290.3167°
revolutions per day: 14.35892415
mean anomaly at epoch: 168.1840°
orbit number at epoch: 66841

The dashed part of the orbit path shows where the satellite is in the earth's shadow,  

DLR